This is the latest recevied weather packets stored in our database for station/object KE3HG-2. If no packets are shown the sender has not sent any weather packets the latest 1 day(s).
| Time | Temp. | Humidity | Pressure | Rain* | Wind** | Luminosity | Snow |
|---|---|---|---|---|---|---|---|
| 1778003342 | 28.33° C | 26% | 757.5 hPa | 0 mm | 1.79 m/s, 207° | - | - |
| 1778002743 | 28.33° C | 25% | 757.5 hPa | 0 mm | 1.79 m/s, 223° | - | - |
| 1778002143 | 28.33° C | 27% | 757.5 hPa | 0 mm | 1.79 m/s, 202° | - | - |
| 1778001542 | 27.78° C | 25% | 757.5 hPa | 0 mm | 1.34 m/s, 202° | - | - |
| 1778000942 | 27.78° C | 25% | 757.5 hPa | 0 mm | 1.79 m/s, 216° | - | - |
| 1777999970 | 27.22° C | 26% | 757.5 hPa | 0 mm | 1.34 m/s, 211° | - | - |
| 1777999370 | 27.22° C | 27% | 757.5 hPa | 0 mm | 1.34 m/s, 229° | - | - |
| 1777998770 | 27.22° C | 27% | 757.5 hPa | 0 mm | 2.68 m/s, 212° | - | - |
| 1777997796 | 26.67° C | 28% | 757.5 hPa | 0 mm | 1.34 m/s, 218° | - | - |
| 1777997196 | 26.67° C | 28% | 757.5 hPa | 0 mm | 1.79 m/s, 212° | - | - |
| 1777996597 | 26.67° C | 30% | 757.5 hPa | 0 mm | 0.89 m/s, 214° | - | - |
| 1777995622 | 26.67° C | 30% | 757.5 hPa | 0 mm | 2.24 m/s, 204° | - | - |
| 1777995022 | 26.11° C | 33% | 757.5 hPa | 0 mm | 0.89 m/s, 218° | - | - |
| 1777994421 | 25.56° C | 31% | 757.5 hPa | 0 mm | 1.79 m/s, 218° | - | - |
| 1777993443 | 25° C | 32% | 757.5 hPa | 0 mm | 0.89 m/s, 210° | - | - |
| 1777992843 | 24.44° C | 33% | 757.5 hPa | 0 mm | 1.34 m/s, 224° | - | - |
| 1777992243 | 23.89° C | 34% | 757.5 hPa | 0 mm | 1.79 m/s, 211° | - | - |
| 1777991260 | 23.33° C | 35% | 757.5 hPa | 0 mm | 1.79 m/s, 215° | - | - |
| 1777990660 | 22.78° C | 37% | 757.5 hPa | 0 mm | 1.34 m/s, 218° | - | - |
| 1777990059 | 22.22° C | 39% | 757.5 hPa | 0 mm | 0.89 m/s, 201° | - | - |
| 1777989079 | 21.67° C | 39% | 757.5 hPa | 0 mm | 0.45 m/s, 191° | - | - |
| 1777988479 | 21.11° C | 40% | 757.5 hPa | 0 mm | 0.45 m/s, 205° | - | - |
| 1777987879 | 21.11° C | 40% | 757.5 hPa | 0 mm | 0.89 m/s, 205° | - | - |
| 1777986888 | 21.11° C | 40% | 757.5 hPa | 0 mm | 0.45 m/s, 213° | - | - |
| 1777986288 | 21.11° C | 40% | 757.5 hPa | 0 mm | 0 m/s | - | - |
* Rain latest hour (hover to see other rain measurements)
** Current wind speed in m/s (hover to see current wind gust speed)